FW3135 Weather Reports


Display with metric or nautical units.
time (UTC)temp
F
wind
direction
speed
MPH
gust
MPH
rain 1hr
in
rain 24hr
in
rain mn
in
humidity
%
barometer
mb
20260904050323 72 360 4.0 9.0 0.00 0.00 0.00 79 1020.7
20260904045918 72 34 1.0 4.0 0.00 0.00 0.00 79 1019.9
20260904045844 72 34 1.0 4.0 0.00 0.00 0.00 79 1019.9
20260904045333 72 269 2.0 4.0 0.00 0.00 0.00 79 1020.0
20260904022333 71 323 3.0 14.0 0.00 0.00 0.00 76 1021.5
20260904021819 72 224 3.0 14.0 0.00 0.00 0.00 76 1021.6
20260904021352 72 360 7.0 14.0 0.00 0.00 0.00 75 1021.6
20260904020838 74 360 5.0 11.0 0.00 0.00 0.00 71 1022.1
20260904020323 75 360 5.0 11.0 0.00 0.00 0.00 68 1022.0
20260904015821 77 227 5.0 9.0 0.00 0.00 0.00 64 1022.1
20260904015421 77 257 3.0 7.0 0.00 0.00 0.00 62 1021.8
20260904015345 77 257 3.0 7.0 0.00 0.00 0.00 62 1021.8
20260904014835 77 241 3.0 10.0 0.00 0.00 0.00 62 1021.8
20260904014330 76 360 7.0 12.0 0.00 0.00 0.00 62 1022.2
20260904013823 74 360 5.0 12.0 0.00 0.00 0.00 68 1021.8
20260904013356 73 360 5.0 9.0 0.00 0.00 0.00 72 1022.5
20260904012846 73 32 2.0 16.0 0.00 0.00 0.00 73 1022.0
20260904012332 72 360 4.0 23.0 0.00 0.00 0.00 74 1022.0
20260904011841 73 360 13.0 25.0 0.00 0.00 0.00 73 1022.7
20260904011339 75 360 8.0 25.0 0.00 0.00 0.00 68 1021.6
20260904010857 81 360 8.0 14.0 0.00 0.00 0.00 58 1021.0
20260904010326 82 117 3.0 9.0 0.00 0.00 0.00 46 1020.2
20260904005847 83 146 5.0 9.0 0.00 0.00 0.00 44 1020.2
20260904005347 84 117 0.0 9.0 0.00 0.00 0.00 43 1020.1
20260904004819 84 87 3.0 10.0 0.00 0.00 0.00 42 1019.8
20260904004336 84 74 6.0 10.0 0.00 0.00 0.00 41 1019.8
20260904003815 85 85 3.0 10.0 0.00 0.00 0.00 40 1020.0
20260904003328 85 360 6.0 10.0 0.00 0.00 0.00 39 1020.0
20260904002826 85 83 7.0 10.0 0.00 0.00 0.00 38 1019.9
20260904002320 86 69 6.0 9.0 0.00 0.00 0.00 37 1019.9
20260904001831 85 78 5.0 10.0 0.00 0.00 0.00 37 1020.0
20260904001412 85 80 5.0 10.0 0.00 0.00 0.00 37 1020.1
20260904001331 85 80 5.0 10.0 0.00 0.00 0.00 37 1020.1
20260904000842 83 62 5.0 10.0 0.00 0.00 0.00 38 1020.2
20260904000337 80 84 5.0 10.0 0.00 0.00 0.00 42 1020.2
20260903235854 77 74 1.0 6.0 0.00 0.00 0.00 55 1020.4
20260903235324 79 200 2.0 6.0 0.00 0.00 0.00 60 1020.5
20260903234825 79 360 2.0 6.0 0.00 0.00 0.00 55 1020.4
20260903234320 77 34 2.0 6.0 0.00 0.00 0.00 55 1020.4
20260903233828 78 194 1.0 6.0 0.00 0.00 0.00 65 1020.5
20260903233321 79 178 2.0 4.0 0.00 0.00 0.00 61 1020.6
20260903232821 80 169 1.0 2.0 0.00 0.00 0.00 60 1020.6
20260903232329 80 355 0.0 4.0 0.00 0.00 0.00 56 1020.6
20260903231831 80 355 1.0 6.0 0.00 0.00 0.00 55 1020.6
20260903231327 81 335 3.0 6.0 0.00 0.00 0.00 54 1020.8
20260903230819 83 300 3.0 7.0 0.00 0.00 0.00 48 1020.8
20260903230341 84 75 1.0 10.0 0.00 0.00 0.00 44 1020.8
20260903225819 85 269 2.0 11.0 0.00 0.00 0.00 40 1020.8
20260903223826 83 348 4.0 11.0 0.00 0.00 0.00 48 1020.3
20260903213321 73 360 2.0 6.0 0.00 0.00 0.00 77 1022.0
20260903212319 74 360 1.0 5.0 0.00 0.00 0.00 75 1022.0
20260903211341 75 109 1.0 4.0 0.00 0.00 0.00 74 1021.6
20260903210823 75 138 2.0 4.0 0.00 0.00 0.00 74 1021.5
20260903210315 75 116 3.0 6.0 0.00 0.00 0.00 73 1021.5
20260903205851 76 360 3.0 6.0 0.00 0.00 0.00 72 1021.4
20260903205348 76 143 3.0 5.0 0.00 0.00 0.00 71 1021.4
20260903203321 77 360 4.0 8.0 0.00 0.00 0.00 68 1020.8
20260903202825 78 360 3.0 6.0 0.00 0.00 0.00 66 1020.7
20260903202321 79 122 2.0 6.0 0.00 0.00 0.00 65 1020.6
20260903201816 79 122 3.0 6.0 0.00 0.00 0.00 65 1020.5
20260903201340 80 360 4.0 6.0 0.00 0.00 0.00 62 1020.5
20260903200815 82 117 1.0 3.0 0.00 0.00 0.00 60 1020.3
20260903200318 82 111 2.0 3.0 0.00 0.00 0.00 58 1020.1
20260903195837 83 142 0.0 6.0 0.00 0.00 0.00 59 1020.0
20260903195314 84 131 0.0 6.0 0.00 0.00 0.00 55 1019.8
20260903194830 85 140 1.0 3.0 0.00 0.00 0.00 55 1019.7
20260903194332 85 46 0.0 1.0 0.00 0.00 0.00 54 1019.6
20260903193828 85 46 0.0 2.0 0.00 0.00 0.00 51 1019.6
20260903193328 84 45 0.0 2.0 0.00 0.00 0.00 52 1019.5
20260903192819 83 45 1.0 3.0 0.00 0.00 0.00 56 1019.4
20260903192315 82 360 0.0 2.0 0.00 0.00 0.00 59 1019.5
20260903191819 82 176 0.0 2.0 0.00 0.00 0.00 59 1019.4
20260903191315 82 176 0.0 4.0 0.00 0.00 0.00 58 1019.4
20260903190835 83 176 2.0 5.0 0.00 0.00 0.00 56 1019.5
20260903190331 86 360 3.0 5.0 0.00 0.00 0.00 53 1019.3
20260903185833 90 165 3.0 5.0 0.00 0.00 0.00 49 1019.2
20260903185330 92 150 2.0 4.0 0.00 0.00 0.00 45 1019.1
20260903184854 92 109 1.0 4.0 0.00 0.00 0.00 42 1019.0
20260903184328 92 205 0.0 3.0 0.00 0.00 0.00 44 1019.0
20260903183852 93 279 0.0 1.0 0.00 0.00 0.00 39 1018.9
20260903183328 94 279 0.0 2.0 0.00 0.00 0.00 40 1018.9
20260903182830 94 278 1.0 2.0 0.00 0.00 0.00 38 1019.0
20260903182343 96 277 1.0 4.0 0.00 0.00 0.00 39 1019.0
20260903181825 96 308 2.0 6.0 0.00 0.00 0.00 33 1018.9
20260903181319 96 360 3.0 8.0 0.00 0.00 0.00 33 1019.0
20260903180842 96 360 2.0 4.0 0.00 0.00 0.00 34 1019.0
20260903180316 96 300 3.0 4.0 0.00 0.00 0.00 35 1019.1
20260903175817 96 299 1.0 5.0 0.00 0.00 0.00 37 1019.1
20260903175400 96 292 2.0 5.0 0.00 0.00 0.00 34 1019.2
20260903174814 96 310 2.0 5.0 0.00 0.00 0.00 34 1019.2
20260903174330 96 333 2.0 5.0 0.00 0.00 0.00 34 1019.3
20260903173834 96 360 2.0 6.0 0.00 0.00 0.00 33 1019.4
20260903173329 96 360 4.0 8.0 0.00 0.00 0.00 33 1019.3
20260903172825 96 360 4.0 9.0 0.00 0.00 0.00 34 1019.4
20260903172327 96 321 4.0 9.0 0.00 0.00 0.00 34 1019.4
20260903171852 95 360 4.0 9.0 0.00 0.00 0.00 34 1019.5
20260903171333 94 360 4.0 10.0 0.00 0.00 0.00 36 1019.5
20260903170847 91 360 5.0 11.0 0.00 0.00 0.00 38 1019.6
20260903170330 89 325 5.0 12.0 0.00 0.00 0.00 44 1019.7
20260903165819 88 360 6.0 12.0 0.00 0.00 0.00 47 1019.6
20260903165321 90 360 5.0 9.0 0.00 0.00 0.00 46 1019.6
20260903164814 94 360 4.0 6.0 0.00 0.00 0.00 37 1019.3
20260903164336 97 253 3.0 4.0 0.00 0.00 0.00 32 1019.2
20260903163831 97 248 2.0 4.0 0.00 0.00 0.00 30 1019.2
20260903163323 97 267 1.0 4.0 0.00 0.00 0.00 31 1019.3
20260903162823 97 254 3.0 4.0 0.00 0.00 0.00 30 1019.2
20260903162341 96 360 2.0 4.0 0.00 0.00 0.00 32 1019.2
20260903161815 96 360 3.0 4.0 0.00 0.00 0.00 31 1019.3
20260903161328 96 360 3.0 4.0 0.00 0.00 0.00 31 1019.3
20260903160829 97 262 3.0 4.0 0.00 0.00 0.00 31 1019.4
20260903160320 97 257 2.0 4.0 0.00 0.00 0.00 32 1019.4
20260903155819 96 360 3.0 4.0 0.00 0.00 0.00 32 1019.5
20260903155338 96 360 2.0 4.0 0.00 0.00 0.00 33 1019.6
20260903154815 96 360 2.0 4.0 0.00 0.00 0.00 33 1019.6
20260903154326 96 254 1.0 6.0 0.00 0.00 0.00 33 1019.6
20260903153818 95 360 3.0 6.0 0.00 0.00 0.00 33 1019.7
20260903153319 95 266 1.0 3.0 0.00 0.00 0.00 35 1019.7
20260903152833 93 360 1.0 4.0 0.00 0.00 0.00 36 1019.7
20260903152332 93 311 2.0 5.0 0.00 0.00 0.00 36 1019.8
20260903151856 92 360 3.0 5.0 0.00 0.00 0.00 37 1019.8
20260903151330 91 251 4.0 5.0 0.00 0.00 0.00 38 1019.9
20260903150824 91 360 4.0 5.0 0.00 0.00 0.00 38 1019.8
20260903150323 91 256 3.0 5.0 0.00 0.00 0.00 39 1019.9
20260903145833 92 250 4.0 5.0 0.00 0.00 0.00 36 1019.9
20260903145328 93 360 2.0 4.0 0.00 0.00 0.00 39 1020.0
20260903144821 92 237 2.0 4.0 0.00 0.00 0.00 38 1020.0
20260903144315 91 243 2.0 3.0 0.00 0.00 0.00 40 1020.1
20260903143816 90 242 2.0 4.0 0.00 0.00 0.00 42 1020.2
20260903143331 90 256 2.0 4.0 0.00 0.00 0.00 40 1020.2
20260903142835 90 254 2.0 3.0 0.00 0.00 0.00 46 1020.3
20260903142332 90 240 2.0 3.0 0.00 0.00 0.00 53 1020.4
20260903141831 91 249 2.0 3.0 0.00 0.00 0.00 50 1020.5
20260903141353 91 238 2.0 3.0 0.00 0.00 0.00 48 1020.4
20260903140829 91 243 1.0 3.0 0.00 0.00 0.00 47 1020.6
20260903140346 89 243 0.0 3.0 0.00 0.00 0.00 42 1020.6
20260903135822 89 243 2.0 3.0 0.00 0.00 0.00 45 1020.8
20260903135314 89 360 1.0 3.0 0.00 0.00 0.00 52 1020.7
20260903134838 89 242 1.0 3.0 0.00 0.00 0.00 52 1020.7
20260903134341 89 243 1.0 2.0 0.00 0.00 0.00 47 1020.6
20260903133816 89 242 0.0 3.0 0.00 0.00 0.00 48 1020.8
20260903133331 89 245 1.0 3.0 0.00 0.00 0.00 49 1020.8
20260903132832 88 245 2.0 3.0 0.00 0.00 0.00 45 1020.9
20260903132321 88 239 2.0 3.0 0.00 0.00 0.00 47 1020.9
20260903131815 87 239 2.0 3.0 0.00 0.00 0.00 52 1021.0
20260903131327 87 240 2.0 4.0 0.00 0.00 0.00 50 1021.1
20260903130822 86 238 2.0 5.0 0.00 0.00 0.00 48 1021.1
20260903130346 85 240 2.0 5.0 0.00 0.00 0.00 50 1021.1
20260903125817 84 254 3.0 4.0 0.00 0.00 0.00 52 1021.1
20260903125351 83 250 3.0 6.0 0.00 0.00 0.00 53 1021.1
20260903124817 82 360 4.0 6.0 0.00 0.00 0.00 55 1021.4
20260903124341 82 360 3.0 7.0 0.00 0.00 0.00 57 1021.4
20260903123823 81 360 3.0 6.0 0.00 0.00 0.00 59 1021.4
20260903123318 80 360 3.0 6.0 0.00 0.00 0.00 62 1021.4
20260903122820 80 360 2.0 5.0 0.00 0.00 0.00 61 1021.4
20260903122317 80 276 3.0 6.0 0.00 0.00 0.00 63 1021.4
20260903121841 80 285 3.0 6.0 0.00 0.00 0.00 62 1021.4
20260903121315 80 265 4.0 5.0 0.00 0.00 0.00 62 1021.4
20260903120836 80 256 3.0 4.0 0.00 0.00 0.00 61 1021.4
20260903120333 80 252 2.0 4.0 0.00 0.00 0.00 62 1021.4
20260903115833 80 256 3.0 4.0 0.00 0.00 0.00 63 1021.5
20260903115329 79 360 2.0 4.0 0.00 0.00 0.00 64 1021.5
20260903114828 79 254 3.0 4.0 0.00 0.00 0.00 64 1021.7
20260903114325 78 360 3.0 6.0 0.00 0.00 0.00 66 1021.8
20260903113822 78 255 3.0 6.0 0.00 0.00 0.00 66 1021.9
20260903113319 79 264 3.0 4.0 0.00 0.00 0.00 66 1022.0
20260903112816 79 239 2.0 3.0 0.00 0.00 0.00 64 1022.0
20260903112340 78 235 2.0 3.0 0.00 0.00 0.00 65 1022.0
20260903111816 78 226 2.0 3.0 0.00 0.00 0.00 65 1022.0
20260903111330 78 225 1.0 3.0 0.00 0.00 0.00 66 1022.1
20260903110814 78 230 2.0 3.0 0.00 0.00 0.00 66 1022.0
20260903110329 78 238 2.0 3.0 0.00 0.00 0.00 68 1022.1
20260903105828 77 240 0.0 2.0 0.00 0.00 0.00 69 1022.1
20260903105342 76 241 1.0 2.0 0.00 0.00 0.00 70 1022.2
20260903104829 76 242 1.0 3.0 0.00 0.00 0.00 70 1022.3
20260903104328 75 242 1.0 3.0 0.00 0.00 0.00 71 1022.4
20260903103821 74 360 2.0 4.0 0.00 0.00 0.00 72 1022.3
20260903103322 74 261 3.0 4.0 0.00 0.00 0.00 71 1022.4
20260903102818 74 360 2.0 4.0 0.00 0.00 0.00 71 1022.3
20260903102315 74 254 2.0 3.0 0.00 0.00 0.00 72 1022.3
20260903101830 73 254 2.0 3.0 0.00 0.00 0.00 73 1022.3
20260903101344 73 265 2.0 3.0 0.00 0.00 0.00 73 1022.3
20260903100823 72 266 2.0 5.0 0.00 0.00 0.00 74 1022.2
20260903100319 72 360 3.0 5.0 0.00 0.00 0.00 73 1022.3
20260903095821 72 255 3.0 4.0 0.00 0.00 0.00 73 1022.3
20260903095317 72 261 3.0 5.0 0.00 0.00 0.00 73 1022.2
20260903094842 72 360 3.0 5.0 0.00 0.00 0.00 73 1022.2
20260903094344 72 263 3.0 3.0 0.00 0.00 0.00 73 1022.0
20260903093841 72 360 2.0 4.0 0.00 0.00 0.00 74 1022.1
20260903093323 71 360 3.0 4.0 0.00 0.00 0.00 74 1022.2
20260903092815 71 263 2.0 5.0 0.00 0.00 0.00 74 1022.1
20260903092342 71 268 3.0 5.0 0.00 0.00 0.00 74 1022.0
20260903091814 71 360 3.0 4.0 0.00 0.00 0.00 73 1022.1
20260903091334 71 265 2.0 4.0 0.00 0.00 0.00 74 1022.1
20260903090835 71 360 2.0 4.0 0.00 0.00 0.00 75 1021.9
20260903090320 70 360 2.0 4.0 0.00 0.00 0.00 75 1021.8
20260903085851 70 265 3.0 4.0 0.00 0.00 0.00 74 1021.9
20260903085326 71 360 3.0 4.0 0.00 0.00 0.00 74 1021.7
20260903084834 71 262 2.0 3.0 0.00 0.00 0.00 74 1021.7
20260903084335 71 261 0.0 2.0 0.00 0.00 0.00 75 1021.7
20260903083829 71 261 0.0 0.0 0.00 0.00 0.00 75 1021.6
20260903083333 71 261 0.0 0.0 0.00 0.00 0.00 75 1021.5
20260903082850 71 261 0.0 1.0 0.00 0.00 0.00 76 1021.6
20260903082338 71 261 0.0 3.0 0.00 0.00 0.00 76 1021.7
20260903081901 71 261 1.0 3.0 0.00 0.00 0.00 76 1021.7
20260903081318 71 261 0.0 3.0 0.00 0.00 0.00 76 1021.7
20260903080839 70 261 1.0 3.0 0.00 0.00 0.00 75 1021.8
20260903080327 71 290 0.0 2.0 0.00 0.00 0.00 75 1021.7
20260903075842 71 292 1.0 3.0 0.00 0.00 0.00 74 1021.7
20260903075322 71 290 1.0 3.0 0.00 0.00 0.00 73 1021.7
20260903074822 71 286 2.0 3.0 0.00 0.00 0.00 72 1021.7
20260903074334 72 313 1.0 2.0 0.00 0.00 0.00 72 1021.6
20260903073851 72 313 0.0 1.0 0.00 0.00 0.00 71 1021.7
20260903073325 72 314 0.0 3.0 0.00 0.00 0.00 71 1021.7
20260903072830 72 314 0.0 3.0 0.00 0.00 0.00 70 1021.6
20260903072349 73 97 0.0 1.0 0.00 0.00 0.00 69 1021.6
20260903071831 72 97 0.0 1.0 0.00 0.00 0.00 70 1021.6
20260903071323 72 97 0.0 1.0 0.00 0.00 0.00 70 1021.5
20260903070850 72 97 0.0 1.0 0.00 0.00 0.00 70 1021.4
20260903070326 71 97 0.0 1.0 0.00 0.00 0.00 70 1021.3
20260903065835 71 97 0.0 1.0 0.00 0.00 0.00 71 1021.4
20260903065316 70 97 0.0 3.0 0.00 0.00 0.00 72 1021.4
20260903064815 70 97 1.0 3.0 0.00 0.00 0.00 72 1021.4
20260903064329 70 94 1.0 3.0 0.00 0.00 0.00 72 1021.4
20260903063832 70 91 0.0 1.0 0.00 0.00 0.00 72 1021.4
20260903063315 69 91 0.0 3.0 0.00 0.00 0.00 73 1021.2
20260903062839 69 91 1.0 3.0 0.00 0.00 0.00 74 1021.2
20260903062332 69 89 0.0 0.0 0.00 0.00 0.00 74 1021.1
20260903061835 69 89 0.0 0.0 0.00 0.00 0.00 74 1021.2
20260903061329 69 89 0.0 0.0 0.00 0.00 0.00 74 1021.1
20260903060826 69 89 0.0 2.0 0.00 0.00 0.00 74 1021.2
20260903060350 69 89 0.0 2.0 0.00 0.00 0.00 74 1021.1
20260903055829 69 88 0.0 2.0 0.00 0.00 0.00 74 1021.1
20260903055329 69 87 0.0 3.0 0.00 0.00 0.00 74 1021.1
20260903054832 69 89 1.0 3.0 0.00 0.00 0.00 74 1021.1